Chicago Midway International Airport Chicago US
ICAO: KMDW
IATA: MDW
Category: Large
Scheduled Services: Yes

Elevation: 620 ft
TransAlt. 18000 ft.

Airport Communications:
APP/DEP:118.4
ASOS:132.75
ATIS:132.75
CLNC DEL:121.85
GND:121.65
TWR:118.7
UNICOM:122.95

KMDW Zoom In..

If you have problems with the map follow the link
https://www.worldairports.se/pages/airport.php?
ICAO=KMDW

Runways:

(A) RW 04L length 5507 ft width 150 ft
---- / hdg 44

(B) RW 04R length 6445 ft width 150 ft
ILS 111.50 / hdg 44

(C) RW 13C length 6522 ft width 150 ft
ILS 109.90 / hdg 135

(D) RW 13L length 5141 ft width 150 ft
---- / hdg 135

(E) RW 13R length 3859 ft width 60 ft
---- / hdg 135

(F) RW 22L length 6445 ft width 150 ft
---- / hdg 224

(G) RW 22R length 5507 ft width 150 ft
---- / hdg 224

(H) RW 31C length 6522 ft width 150 ft
ILS 109.90 / hdg 315

(I) RW 31L length 3859 ft width 60 ft
---- / hdg 315

(J) RW 31R length 5141 ft width 150 ft
---- / hdg 315

Location; KMDW
Day. 20 / Time. 20.53 Zulu
* Altimeter: 29.68
* Temperature: 02° c. 35.6°f.
* Wind from: 210° Speed 12 kn with Gusts up to 20 kn.
Dewpoint: 02° c.
Visibility: 5 Statute Miles.
Clouds: Overcast 700 ft.
Conditions: Slight Drizzle.Conditions: Mist.

KMDW 202053Z 21012G20KT 5SM -DZ BR OVC007 02/02 A2968 RMK AO2 SLP062 P0000 60001 T00220017 56027


Wind From 210°
Speed 12 kn.

 
 
jpsmedia.com for Web Design worldairports.se 2019   terms of use